Location: Brabourne
(51.1333°N, 1.0000°E)
Time: 12:08:52
(UTC+00:00)

IRS-1D - Pass Details

Date: 24 October 2021
Orbit: 739 x 817 km, 98.6° (Epoch: 30 November)

Event Time Altitude Azimuth Distance (km) Brightness Sun altitude
Rises 02:11:57 0° 18° (NNE) 3,272 7.4 -40.1°
Reaches altitude 10° 02:14:21 10° 23° (NNE) 2,328 6.5 -39.8°
Enters shadow 02:15:40 18° 28° (NNE) 1,831 5.9 -39.6°
